Location: Adamstown South Public School
(32.9318°S, 151.7012°E)
Time: 14:41:46
(UTC+00:00)

ATLAS CENTAUR R/B - Pass Details

Date: 07 June 2020
Orbit: 474 x 673 km, 64.7° (Epoch: 02 July)

Event Time Altitude Azimuth Distance (km) Brightness Sun altitude
Rises 07:15:13 0° 193° (SSW) 3,013 5.0 -5.0°
Reaches altitude 10° 07:18:05 10° 176° (S) 2,114 4.0 -5.5°
Maximum altitude 07:21:40 20° 128° (SE) 1,544 3.0 -6.2°
Drops below altitude 10° 07:25:14 10° 81° (E) 2,115 3.8 -6.9°
Sets 07:28:06 0° 64° (ENE) 3,015 4.7 -7.4°
